Temperature
4 4 4 4 4 4 4 4 4 5 5 5 5 5 5 5 6 6 6 6 6 6 6 6 6 6 6 6 6 5 5 5 5 4 4 4 4 4 4 4 4 4 4
3 3 3 3 3 3 3 4 4 4 4 4 5 5 5 5 5 5 5 5 5 5 5 5 6 6 5 5 5 5 5 5 4 4 4 4 4 3 3 3 3 3 3
3 3 3 3 3 3 3 3 3 4 4 4 4 4 5 5 5 5 5 5 5 5 5 5 5 5 5 5 5 5 4 4 4 4 3 3 3 3 3 3 2 2 2
2 2 2 2 2 2 2 3 3 3 3 3 4 4 4 4 4 4 4 4 4 5 5 5 5 5 5 5 4 4 4 4 3 3 3 3 2 2 2 2 2 2 2
2 1 1 1 1 2 2 2 2 3 3 3 3 3 4 4 4 4 4 4 4 4 4 4 4 4 4 4 4 4 4 3 3 2 2 2 2 2 2 2 1 1 1
1 1 1 1 1 1 1 2 2 2 2 3 3 3 3 3 3 3 4 4 4 3 4 4 4 4 4 3 3 3 3 3 3 2 2 2 2 2 1 1 1 1 0
1 0 0 1 1 1 1 1 1 2 2 2 2 2 2 3 3 3 3 3 3 3 3 3 3 3 3 3 3 3 2 2 3 2 2 2 2 1 1 1 1 0 0
0 0 0 0 0 1 1 1 1 1 1 1 2 2 2 2 2 3 3 3 3 3 3 3 3 2 2 2 2 2 2 2 2 1 1 1 1 1 1 1 0 0 -0
-0 -0 -0 0 0 0 0 0 0 1 1 1 1 1 2 2 2 2 2 2 2 2 2 2 2 2 2 2 1 1 1 1 1 1 1 1 1 0 0 0 -0 -1 -1
-0 -0 -0 -0 -0 -0 -0 -0 0 0 0 0 1 1 1 1 1 1 2 2 2 2 1 1 1 1 1 1 1 0 1 1 0 0 0 0 -0 -0 -0 -1 -1 -1 -2
-1 -1 -1 -1 -1 -1 -1 -0 -0 0 0 0 0 1 1 1 1 1 1 1 1 1 1 1 1 1 0 0 -0 -0 0 -0 -0 -0 -1 -1 -1 -1 -1 -1 -1 -2 -2
-1 -1 -1 -1 -1 -1 -1 -1 -1 -1 -0 -0 -0 -0 -0 0 0 0 1 0 0 0 0 0 0 0 -0 -0 -0 -1 -1 -1 -1 -1 -2 -2 -2 -2 -2 -2 -2 -2 -2
-1 -1 -1 -1 -1 -1 -1 -1 -1 -1 -1 -1 -1 -1 -1 -1 -0 -0 -0 -0 -0 -0 -0 -0 -0 -1 -1 -1 -1 -1 -1 -2 -2 -2 -2 -2 -2 -2 -2 -2 -3 -3 -3
-2 -2 -2 -2 -2 -2 -2 -2 -2 -2 -2 -2 -2 -1 -1 -1 -1 -1 -1 -1 -1 -1 -1 -1 -1 -1 -2 -2 -2 -2 -2 -2 -3 -3 -3 -3 -3 -3 -3 -3 -3 -3 -3
-2 -2 -2 -2 -2 -2 -2 -2 -2 -2 -2 -2 -2 -2 -2 -2 -2 -2 -2 -2 -2 -2 -2 -2 -2 -2 -3 -3 -3 -3 -3 -3 -3 -3 -3 -4 -4 -4 -4 -4 -4 -4 -4
-3 -3 -3 -3 -3 -3 -3 -2 -2 -2 -3 -3 -3 -3 -3 -2 -2 -2 -2 -2 -2 -2 -2 -3 -3 -3 -3 -3 -4 -4 -4 -4 -4 -4 -4 -4 -5 -5 -5 -5 -5 -5 -5
-3 -3 -3 -3 -3 -3 -3 -3 -3 -3 -3 -3 -3 -3 -3 -3 -3 -3 -3 -3 -3 -3 -3 -3 -3 -4 -4 -4 -4 -4 -4 -4 -4 -4 -4 -5 -5 -5 -5 -5 -5 -5 -5
-3 -3 -3 -3 -3 -3 -4 -4 -4 -4 -4 -4 -4 -4 -4 -4 -4 -4 -4 -4 -4 -4 -4 -4 -4 -4 -4 -4 -4 -4 -5 -5 -5 -5 -5 -5 -6 -6 -6 -6 -6 -6 -6
-3 -4 -4 -4 -4 -4 -4 -4 -4 -4 -4 -4 -4 -4 -4 -4 -4 -4 -4 -4 -4 -4 -5 -5 -5 -5 -5 -5 -5 -5 -5 -5 -5 -5 -6 -6 -6 -6 -6 -6 -6 -6 -6
-4 -4 -4 -4 -4 -4 -4 -4 -4 -4 -5 -5 -5 -4 -5 -5 -5 -5 -5 -5 -5 -5 -5 -5 -5 -5 -5 -5 -5 -5 -6 -6 -6 -6 -6 -6 -6 -6 -6 -6 -7 -7 -7
-4 -4 -4 -4 -4 -4 -4 -4 -5 -5 -5 -5 -5 -5 -5 -5 -5 -5 -5 -5 -6 -6 -5 -5 -5 -6 -6 -6 -6 -6 -6 -6 -6 -6 -6 -6 -7 -7 -7 -7 -7 -7 -7
-5 -5 -5 -5 -5 -5 -5 -5 -5 -5 -5 -5 -5 -5 -5 -5 -6 -6 -6 -6 -6 -6 -6 -6 -6 -6 -6 -6 -6 -6 -6 -6 -7 -7 -7 -7 -7 -7 -7 -7 -7 -7 -8
-5 -5 -5 -5 -5 -5 -5 -5 -5 -5 -6 -6 -6 -6 -6 -6 -6 -6 -6 -6 -6 -6 -6 -6 -6 -6 -6 -6 -6 -6 -6 -6 -7 -7 -7 -7 -7 -7 -8 -8 -8 -8 -8
-5 -5 -5 -5 -5 -5 -5 -5 -6 -6 -6 -6 -6 -6 -6 -6 -6 -6 -6 -6 -6 -6 -7 -6 -6 -6 -6 -6 -6 -6 -6 -7 -7 -7 -7 -7 -7 -8 -8 -8 -8 -8 -8
-5 -5 -6 -6 -6 -6 -6 -6 -6 -6 -6 -6 -7 -7 -7 -7 -7 -7 -7 -7 -7 -7 -7 -7 -7 -7 -7 -7 -7 -7 -7 -7 -7 -7 -7 -8 -8 -8 -8 -8 -8 -8 -8
-6 -6 -6 -6 -6 -6 -6 -6 -6 -6 -7 -7 -7 -7 -7 -7 -7 -7 -7 -7 -7 -7 -7 -7 -7 -7 -7 -7 -7 -7 -7 -7 -8 -8 -8 -8 -8 -8 -8 -9 -8 -8 -8
Wind_Speed
6 6 6 6 6 6 6 7 7 7 7 7 7 8 8 8 8 8 8 8 9 9 8 9 10 9 7 6 6 6 6 6 7 5 3 3 4 4 4 5 5 6 6
6 6 6 6 6 6 7 7 7 7 7 8 8 8 8 8 9 9 9 9 9 9 9 9 10 8 9 7 6 7 6 6 6 6 4 3 4 5 4 5 4 4 5
6 6 6 6 6 7 7 6 6 7 7 8 8 8 9 9 9 9 9 9 9 9 9 10 9 9 10 8 8 7 6 5 5 5 4 3 3 3 3 4 4 4 4
5 5 6 6 6 7 7 7 6 7 7 7 8 8 8 9 9 8 8 8 8 7 8 8 9 9 9 9 8 7 6 5 5 4 4 3 2 2 3 3 3 3 4
6 6 6 7 7 6 6 6 6 6 7 7 7 7 7 7 7 8 7 7 7 7 7 7 7 7 8 8 7 7 6 5 5 5 4 4 3 2 3 3 4 4 4
6 7 7 6 6 6 6 6 6 6 6 6 6 6 6 6 7 7 6 6 6 6 6 6 6 6 6 8 8 8 7 7 7 6 5 5 5 4 3 3 3 3 4
6 6 7 6 6 6 6 6 6 6 6 5 5 5 6 6 6 4 4 4 5 6 6 5 4 5 5 6 7 7 8 8 8 7 7 6 5 5 4 4 4 4 5
6 6 6 6 6 6 6 6 5 5 5 5 5 5 5 4 4 3 3 4 4 5 5 5 5 5 5 4 5 5 5 5 5 5 6 5 4 4 5 5 4 3 3
6 6 6 6 6 6 6 5 5 5 5 5 4 4 4 3 2 2 2 3 3 3 3 4 4 4 5 5 4 4 4 2 2 3 2 2 2 3 2 2 2 2 3
7 6 6 6 6 6 6 5 4 4 4 4 4 3 3 3 2 1 1 2 2 2 2 2 4 4 4 5 4 4 4 3 3 3 2 2 2 2 3 3 3 3 3
6 6 6 6 6 5 5 4 4 3 3 3 2 2 2 2 1 1 1 1 2 2 2 2 2 4 4 5 3 3 3 3 3 3 2 2 1 0 1 1 2 3 3
6 6 6 5 5 4 4 3 2 1 1 2 2 1 1 1 1 1 0 1 1 1 2 1 2 4 4 4 3 4 5 4 3 2 2 1 1 0 1 1 2 2 2
5 5 5 5 4 3 2 2 1 1 1 1 1 1 1 1 1 1 1 1 1 1 1 2 3 4 4 3 4 5 4 3 2 2 1 0 0 0 1 1 1 1 2
5 5 4 4 3 3 2 2 1 1 1 2 2 1 1 1 0 0 0 1 2 2 2 4 5 5 4 4 4 3 2 2 2 1 1 1 1 1 0 1 1 1 1
5 4 4 3 3 2 2 2 1 1 1 2 2 2 2 1 1 1 1 1 1 2 4 3 3 2 2 2 2 2 2 2 1 1 1 1 1 1 1 1 1 1 1
4 4 3 2 2 2 1 2 2 1 1 1 1 0 0 0 2 2 3 4 5 5 5 3 2 2 2 2 2 2 1 1 1 1 1 1 0 0 1 1 1 1 1
3 3 3 2 2 2 1 0 1 1 2 2 2 2 2 2 3 3 4 5 5 5 3 3 2 2 1 2 1 1 1 1 1 1 0 0 0 0 0 1 1 1 1
4 3 3 2 2 1 1 1 1 1 1 1 1 2 2 3 4 4 4 4 3 3 2 2 1 1 1 1 1 1 1 1 1 0 0 0 0 0 0 1 1 1 1
3 2 2 2 1 1 1 0 0 0 0 0 1 1 2 2 4 4 3 2 2 2 1 1 1 1 1 1 1 1 1 1 1 0 0 0 0 0 0 1 1 2 2
3 3 2 1 1 1 0 1 1 1 0 0 0 0 0 1 1 1 1 1 1 1 1 1 1 1 1 1 1 1 1 1 1 0 0 0 0 0 0 1 1 1 2
2 2 2 2 1 1 1 1 1 1 1 0 0 0 1 1 1 1 1 1 1 1 1 1 1 1 1 1 1 1 1 1 1 0 0 0 0 1 1 1 1 1 2
2 2 1 1 1 1 1 0 0 1 1 0 0 1 1 1 1 1 1 1 1 1 1 1 1 1 1 1 1 1 1 1 1 1 1 1 1 1 1 1 1 1 2
1 1 1 1 1 1 0 0 1 1 1 1 1 0 1 1 1 1 1 1 1 1 1 1 1 1 1 1 1 1 1 1 1 2 1 1 1 1 1 1 2 2 2
1 1 1 1 0 0 0 0 1 1 1 1 1 1 1 1 1 1 1 1 1 1 1 1 1 1 1 1 1 1 1 2 2 2 2 2 2 1 1 2 2 2 2
1 1 1 1 1 1 0 0 0 0 0 1 1 1 1 1 1 1 1 1 1 1 1 1 1 2 2 1 1 1 2 2 2 2 3 2 2 2 2 2 2 2 3
1 1 1 1 1 1 1 1 1 1 1 1 1 1 1 1 1 1 1 1 1 1 1 1 1 2 2 2 2 2 2 3 3 3 3 3 3 2 2 2 2 2 3
Wind_Direction
276 274 275 275 272 267 263 265 267 264 260 258 261 258 254 248 242 239 238 238 231 226 225 224 223 219 218 217 220 226 231 234 244 257 257 241 237 243 243 250 253 256 253
283 276 275 275 273 270 268 266 265 265 262 259 257 257 255 250 245 240 240 240 233 229 225 225 222 216 216 213 214 222 229 234 236 244 244 241 244 243 255 264 263 261 264
292 283 279 277 275 272 272 271 268 266 265 263 259 257 255 251 248 245 243 241 237 231 225 223 223 218 215 213 213 217 223 228 228 232 237 241 251 245 255 265 269 271 274
299 291 283 280 275 273 273 273 270 266 266 266 267 262 257 251 247 245 243 241 238 234 229 225 224 222 218 212 212 213 214 218 219 222 227 233 236 241 246 260 269 270 276
301 295 287 283 278 274 273 272 272 268 265 264 264 267 264 256 248 247 240 234 231 230 227 226 227 225 227 216 214 212 208 211 213 217 223 230 227 227 243 250 260 273 277
298 294 293 288 284 280 279 276 272 268 266 264 262 264 269 266 264 252 240 230 225 223 224 224 224 218 218 213 211 211 210 210 212 216 226 230 235 234 237 235 248 266 269
293 292 292 290 286 283 281 276 272 268 267 266 268 270 271 275 277 247 235 232 224 220 220 216 219 214 212 215 207 208 211 214 218 221 223 231 235 230 226 234 238 255 267
289 291 294 290 285 281 278 274 274 272 267 264 266 267 268 267 275 258 231 226 222 216 214 212 210 211 209 208 207 212 219 226 232 232 227 230 233 232 231 237 245 262 288
290 291 290 287 283 281 276 276 274 273 271 265 262 262 261 264 269 267 227 213 215 216 214 209 206 208 195 189 198 202 203 212 202 195 204 200 196 203 209 215 217 240 275
292 292 290 286 278 276 273 270 269 266 268 273 270 261 259 262 254 240 195 198 197 205 205 205 197 193 188 183 191 193 194 193 173 158 159 157 177 178 195 225 224 234 268
295 296 293 289 283 278 275 270 267 268 273 277 278 275 267 260 237 198 191 198 183 183 189 201 191 173 178 176 184 193 186 166 154 154 164 165 167 208 265 288 277 251 256
298 298 296 294 291 284 279 280 280 272 260 274 286 299 298 272 253 216 158 187 168 181 188 185 169 162 168 156 153 141 133 130 135 142 154 167 170 261 349 357 353 337 303
303 300 300 297 293 292 283 274 265 256 240 240 250 257 286 325 357 40 78 132 126 147 143 138 136 137 134 129 125 120 119 120 125 143 161 185 20 46 28 3 3 3 349
303 308 308 305 308 308 296 281 256 233 228 233 239 244 254 277 315 50 67 118 118 111 113 115 111 106 104 103 105 102 104 119 132 146 136 99 71 60 10 334 313 307 319
304 308 311 313 308 306 309 306 271 249 242 243 244 235 220 226 233 77 108 116 115 122 111 102 94 96 105 98 84 78 83 103 115 114 111 95 78 28 354 356 328 310 288
306 308 307 308 306 307 317 340 12 15 15 342 351 321 278 62 97 102 94 99 103 118 118 123 124 128 127 121 112 92 84 89 87 94 110 127 139 2 353 345 330 324 317
292 297 299 298 299 298 287 276 7 28 41 54 74 70 83 98 96 105 105 104 105 113 115 123 131 138 133 126 123 123 122 99 89 94 98 132 159 313 327 328 346 347 331
289 292 294 292 297 288 270 252 214 164 104 46 45 71 86 96 98 96 102 104 98 90 102 122 134 137 142 141 133 127 121 119 117 134 163 192 211 295 315 317 323 331 319
293 294 290 293 301 292 272 252 179 166 148 71 36 59 91 99 95 86 92 104 120 117 112 119 127 133 133 131 126 133 140 146 140 173 201 225 252 310 319 320 323 323 318
289 302 309 297 295 291 233 188 184 181 185 177 188 352 110 111 106 97 93 102 117 121 130 150 149 146 148 149 147 147 140 144 140 151 137 358 321 302 280 287 296 302 306
285 285 293 297 291 276 245 208 208 199 196 209 294 83 144 149 149 143 136 133 140 145 149 157 156 155 162 165 164 162 159 159 167 170 171 275 283 296 304 297 295 298 305
276 278 269 269 272 266 256 237 213 201 196 193 76 94 147 141 142 148 153 156 160 164 168 172 175 172 175 184 180 173 169 169 174 194 217 233 248 267 288 286 288 290 289
267 268 269 277 277 263 250 222 210 213 210 199 185 173 175 176 171 171 170 168 159 156 154 164 177 175 166 177 189 191 191 198 206 210 219 222 219 230 255 267 272 279 284
270 272 267 263 258 224 213 225 225 213 201 199 200 201 207 210 200 188 186 171 168 168 165 174 186 189 178 179 185 193 202 206 210 213 217 219 219 228 244 258 270 276 278
248 253 252 246 237 234 221 209 217 212 212 215 214 212 217 215 208 196 191 184 180 176 177 182 186 189 193 205 212 209 206 218 228 213 213 216 218 230 243 254 263 270 271
225 225 238 249 249 251 240 231 228 223 221 227 224 222 219 215 213 205 193 182 177 181 189 196 196 200 211 219 223 227 231 236 228 217 225 222 228 238 244 251 259 264 270
Height
1475 1475 1474 1473 1473 1473 1472 1471 1471 1471 1471 1471 1471 1472 1471 1472 1472 1472 1472 1472 1472 1473 1474 1475 1476 1478 1479 1480 1481 1482 1484 1484 1484 1484 1485 1484 1484 1484 1483 1483 1482 1481 1480
1470 1469 1468 1468 1468 1467 1466 1466 1466 1465 1466 1466 1465 1466 1466 1466 1466 1466 1466 1466 1467 1467 1467 1468 1470 1472 1473 1475 1475 1476 1478 1479 1479 1479 1479 1479 1479 1479 1478 1478 1477 1476 1475
1465 1463 1463 1462 1462 1461 1461 1460 1460 1460 1460 1459 1459 1460 1460 1460 1460 1460 1459 1460 1460 1461 1462 1463 1464 1466 1467 1468 1469 1471 1472 1473 1473 1474 1473 1474 1474 1474 1473 1473 1472 1471 1470
1459 1458 1457 1457 1456 1455 1455 1455 1454 1454 1453 1453 1453 1453 1453 1454 1453 1453 1453 1453 1454 1455 1456 1457 1458 1459 1461 1463 1464 1465 1466 1467 1468 1468 1468 1469 1469 1468 1469 1468 1467 1467 1465
1455 1454 1452 1451 1451 1450 1449 1449 1448 1448 1448 1447 1448 1447 1447 1447 1447 1447 1447 1447 1448 1449 1450 1451 1453 1454 1455 1457 1458 1459 1461 1461 1462 1463 1463 1464 1464 1463 1464 1463 1463 1462 1461
1451 1449 1448 1447 1446 1445 1444 1443 1443 1442 1442 1442 1442 1442 1441 1441 1441 1441 1442 1442 1442 1443 1445 1446 1447 1449 1450 1451 1453 1454 1455 1456 1457 1458 1458 1458 1458 1459 1459 1459 1459 1458 1456
1447 1446 1444 1443 1441 1440 1439 1438 1438 1437 1437 1437 1437 1436 1436 1436 1436 1436 1436 1437 1438 1439 1440 1441 1442 1443 1445 1446 1447 1449 1450 1451 1452 1453 1453 1453 1454 1454 1455 1455 1454 1453 1452
1443 1442 1440 1439 1437 1436 1435 1434 1433 1433 1433 1432 1432 1432 1431 1431 1431 1431 1432 1433 1434 1435 1436 1436 1437 1438 1440 1441 1442 1443 1444 1446 1447 1448 1449 1449 1450 1450 1450 1450 1449 1449 1448
1440 1438 1436 1435 1434 1432 1431 1430 1429 1429 1429 1428 1428 1428 1427 1427 1428 1428 1428 1429 1430 1431 1432 1432 1433 1434 1436 1437 1438 1438 1439 1440 1442 1443 1444 1445 1445 1446 1446 1446 1445 1444 1443
1437 1434 1433 1431 1430 1429 1427 1426 1426 1425 1425 1425 1424 1424 1424 1424 1425 1425 1425 1426 1426 1427 1428 1429 1430 1431 1432 1433 1434 1435 1435 1436 1437 1438 1440 1440 1441 1441 1442 1442 1441 1440 1439
1434 1431 1430 1428 1427 1425 1424 1423 1422 1422 1422 1422 1421 1421 1421 1422 1422 1423 1423 1423 1423 1424 1425 1426 1427 1428 1429 1430 1431 1432 1432 1433 1433 1434 1435 1436 1436 1437 1437 1437 1437 1437 1436
1430 1428 1427 1425 1424 1422 1421 1420 1419 1419 1418 1418 1418 1418 1419 1420 1421 1421 1421 1421 1422 1422 1422 1424 1424 1426 1427 1427 1428 1428 1429 1429 1430 1431 1431 1431 1432 1432 1432 1432 1432 1432 1432
1428 1426 1424 1423 1421 1420 1418 1417 1417 1416 1416 1416 1416 1416 1417 1417 1418 1418 1419 1419 1420 1420 1421 1422 1423 1424 1424 1425 1425 1425 1426 1426 1427 1428 1428 1428 1429 1428 1428 1428 1427 1427 1427
1426 1424 1422 1420 1418 1417 1417 1415 1414 1414 1414 1414 1414 1414 1415 1415 1415 1416 1416 1417 1417 1418 1419 1420 1421 1422 1422 1423 1423 1423 1424 1424 1425 1426 1425 1426 1425 1425 1424 1424 1423 1423 1423
1423 1421 1420 1418 1417 1415 1414 1413 1412 1412 1412 1412 1412 1413 1413 1412 1413 1414 1414 1415 1415 1416 1417 1417 1418 1420 1420 1420 1421 1421 1422 1422 1423 1423 1423 1422 1422 1422 1421 1421 1420 1420 1420
1421 1420 1418 1416 1415 1413 1412 1411 1410 1410 1410 1411 1411 1412 1412 1412 1412 1412 1413 1414 1414 1415 1415 1416 1417 1418 1419 1419 1419 1419 1420 1420 1420 1420 1420 1420 1420 1420 1419 1418 1418 1418 1417
1420 1418 1417 1415 1413 1412 1411 1410 1409 1409 1409 1409 1410 1410 1410 1410 1411 1411 1411 1412 1413 1413 1414 1414 1416 1416 1417 1417 1417 1418 1418 1418 1419 1419 1419 1419 1419 1418 1418 1417 1416 1416 1416
1418 1416 1415 1413 1412 1410 1410 1409 1408 1407 1407 1407 1408 1408 1409 1409 1410 1410 1410 1411 1411 1412 1412 1413 1414 1415 1416 1416 1416 1416 1416 1417 1417 1417 1417 1417 1417 1417 1416 1416 1415 1415 1414
1415 1414 1413 1411 1410 1409 1408 1407 1407 1407 1406 1406 1407 1407 1408 1408 1408 1409 1409 1410 1410 1410 1411 1412 1413 1413 1414 1414 1414 1415 1416 1416 1416 1416 1416 1416 1415 1415 1415 1414 1414 1414 1413
1414 1412 1411 1410 1409 1408 1407 1406 1406 1406 1406 1406 1406 1406 1407 1407 1407 1407 1408 1409 1409 1410 1411 1411 1412 1412 1413 1413 1414 1414 1414 1414 1414 1414 1414 1414 1414 1414 1413 1413 1413 1412 1412
1412 1411 1409 1408 1407 1406 1406 1405 1405 1405 1405 1405 1405 1405 1406 1406 1406 1406 1407 1408 1408 1409 1410 1411 1411 1411 1412 1412 1412 1413 1413 1413 1413 1413 1412 1412 1412 1412 1412 1411 1411 1411 1411
1410 1409 1408 1407 1406 1406 1405 1405 1405 1404 1404 1404 1404 1405 1405 1405 1405 1406 1406 1407 1408 1409 1409 1410 1410 1410 1411 1411 1411 1411 1411 1411 1411 1411 1411 1411 1411 1411 1410 1410 1410 1409 1409
1409 1408 1407 1406 1405 1405 1404 1404 1404 1403 1403 1403 1403 1404 1404 1404 1404 1405 1405 1406 1407 1408 1408 1409 1409 1409 1409 1410 1410 1410 1410 1410 1410 1410 1410 1409 1409 1409 1409 1409 1408 1408 1408
1408 1407 1406 1405 1404 1404 1403 1403 1403 1403 1402 1402 1402 1402 1403 1403 1403 1404 1404 1405 1406 1406 1407 1407 1408 1408 1408 1408 1408 1408 1409 1409 1409 1408 1408 1408 1408 1407 1407 1407 1407 1407 1406
1406 1406 1405 1404 1403 1403 1403 1402 1402 1401 1401 1401 1401 1401 1401 1402 1402 1402 1403 1403 1404 1405 1405 1406 1406 1406 1406 1406 1407 1407 1407 1407 1407 1407 1406 1406 1406 1406 1406 1405 1405 1405 1405
1405 1405 1404 1403 1403 1402 1402 1401 1401 1401 1400 1400 1400 1400 1400 1400 1401 1401 1402 1402 1403 1403 1403 1404 1404 1404 1405 1405 1405 1405 1405 1405 1405 1405 1405 1404 1404 1404 1404 1404 1403 1403 1403